Home   Weather   Oakville   Past weeks
Flag for Canada

Past Weather in Oakville, Ontario, Canada — Yesterday and Last 2 Weeks

Now
41 °F

Quite cool.


Feels Like: 38 °F
Forecast: 49 / 44 °F
Wind: 5 mph from Northeast

Location: Burlington Piers

Current Time: Apr 25, 2019 at 9:56:52 pm

Latest Report: Apr 25, 2019 at 8:00 pm


Visibility: N/A

Pressure: 29.81 "Hg

Humidity: 89%

Dew Point: 38 °F

Location of OakvilleLocation

Past Weather in Oakville — Graph

°F

Oakville Temperature Yesterday

Maximum temperature yesterday: 59 °F (at 7:00 pm)
Minimum temperature yesterday: 40 °F (at 7:00 am)
Average temperature yesterday: 47 °F

High & Low Weather Summary for the Past Weeks

 TemperatureHumidityPressure
High71 °F (Apr 18, 5:00 pm)100% (Apr 15, 4:00 am)30.27 "Hg (Apr 15, 4:00 am)
Low34 °F (Apr 11, 1:00 pm)29% (Apr 13, 2:00 pm)29.30 "Hg (Apr 15, 2:00 am)
Average44 °F78%29.90 "Hg
* Reported Apr 10 8:00 pm — Apr 25 8:00 pm, Oakville. Weather by CustomWeather, © 2019

Note: Actual official high and low records may vary slightly from our data, if they occured in-between our weather recording intervals... More about our weather records

Advertising

Oakville Weather History for the Previous 24 Hours

Scroll right to see more
 ConditionsComfort  
Time TempWeatherWind HumidityBarometerVisibility
8:00 pm
Thu, Apr 25
41 °FQuite cool.5 mph89%29.81 "HgN/A
7:00 pm41 °FQuite cool.5 mph89%29.83 "HgN/A
6:00 pm40 °FChilly.5 mph92%29.84 "HgN/A
5:00 pm40 °FQuite cool.5 mph90%29.86 "HgN/A
4:00 pm40 °FQuite cool.6 mph92%29.87 "HgN/A
3:00 pm40 °FQuite cool.6 mph91%29.87 "HgN/A
2:00 pm40 °FChilly.6 mph92%29.88 "HgN/A
1:00 pm38 °FChilly.8 mph97%29.90 "HgN/A
9:00 am40 °FQuite cool.6 mph86%29.93 "HgN/A
8:00 am38 °FChilly.2 mph92%29.94 "HgN/A
7:00 am42 °FQuite cool.1 mph82%29.92 "HgN/A
6:00 am40 °FChilly.No wind82%29.91 "HgN/A
5:00 am40 °FQuite cool.2 mph89%29.92 "HgN/A
4:00 am41 °FQuite cool.2 mph90%29.91 "HgN/A
3:00 am41 °FQuite cool.6 mph91%29.90 "HgN/A
2:00 am42 °FQuite cool.No wind89%29.93 "HgN/A
1:00 am45 °FCool.6 mph79%29.93 "HgN/A
12:00 am44 °FQuite cool.6 mph85%29.93 "HgN/A
11:00 pm
Wed, Apr 24
50 °FCool.5 mph68%29.93 "HgN/A
10:00 pm52 °FCool.3 mph62%29.92 "HgN/A
9:00 pm48 °FCool.1 mph73%29.91 "HgN/A
Weather by CustomWeather, © 2019

See weather overview